Weather in Ushchitsy

Russia / Pskov Oblast     56°16′37″N   30°47′24″E
temp.,
°C
wind,
m/s
gust,
m/s
humid.,
%
clouds,
%
prec.,
mm/h
press.,
hPa
HPBL,
m
15 april, thu
thu1500:00+4nne41094100 0.0 1020466
03:00+4nne4994100 0.1 1020476
06:00+4nne51192100 0.0 1020440
09:00+5nne51186100 0.0 1020509
12:00+5nne51192100 1.8 1020546
15:00+5nne61390100 2.6 1020679
18:00+7ne51286100 0.4 1019723
21:00+7ne61386100 0.7 1019655
16 april, fri
fri1600:00+6ne51287100 0.0 1019589
03:00+6ne51287100 0.0 1018538
06:00+6ene51389100 0.0 1018635
09:00+7ene51289100 0.4 1019664
12:00+9ene5118691 0.1 1020643
15:00+11ene6107699 0.1 1020859
18:00+11ene51177100 0.0 1021972
21:00+9ne5128191 0.0 1021549
17 april, sat
sat1700:00+9ene6147988 0.0 1021755
03:00+8ene5118493 0.1 1022578
06:00+7ene41088100 0.0 1023448
09:00+9ene487930 0.0 1024532
12:00+10ene4675100 0.0 1025586
15:00+12ene476989 0.0 10251028
18:00+12ne4869100 0.0 1024879
21:00+9ne397677 0.0 1025266
18 april, sun
sun1800:00+7ne397916 0.0 1025292
03:00+5ne397937 0.0 1025266
06:00+4ne39823 0.0 1026278
09:00+8ene48600 0.0 1025569
12:00+12ene57462 0.0 10251201
15:00+15ene56385 0.0 10251690
18:00+14ene46445 0.0 10251238
21:00+8ene396414 0.0 1026164
19 april, mon
mon1900:00+6e38735 0.0 1027146
03:00+5e36813 0.0 1027131
06:00+3e25845 0.0 1028106
09:00+9e36625 0.0 1027405
12:00+13e46449 0.0 10271714
15:00+14e454086 0.0 10262030
18:00+13ese474983 0.0 1026810
21:00+8ese247135 0.0 102666